DELTA 1 DEB, 7092

Orbit data source: Space-Track

DELTA 1 DEB, 7092 is space debris in SSO originally from a launch on Tue, 06 Nov 1973 UTC launched from the Air Force Western Test Range (AFWTR). Debris objects in space refer to the collection of defunct objects orbiting the Earth. Examples of debris include non-operational satellites, rocket bodies, and fragments generated from explosions, collisions, or faulty payload assembly.

Loading next visibility...
Identifier
7092, 1973-086CL
Orbit
SSO
Country
Flag of USUS
Related business
Manufacturer
Unknown
Mission
Spacecraft
Bus & Motor
Unknown
Mass
Unknown
Launch date (UTC)
1973-11-06 (53 years ago)
Launch vehicle
Unknown
Launch site
Air Force Western Test Range (AFWTR)
Object type
Payload
Rocket body
Debris
Shape & HBR
Unknown shape, 0.1 m
Radar Cross Section
Medium (>0.1 m² and <1 m²)

Expand to show TLE details & history
Last TLE update: 2 days ago

TLE from 2 days ago
0 DELTA 1 DEB
1 07092U 73086CL  26208.35855984  .00000206  00000-0  61388-3 0  9994
2 07092 101.8177 158.1905 0315734 322.5348 190.2994 13.07052498507627
Epoch: 2026-07-27T08:36Z
TLE epoch observation values (Epoch: 2026-07-27T08:36:19.570Z)
Latitude
27.18735°
Longitude
-89.79482°
Altitude
1,474.425 km
Speed
7.017 km/s
True Right ascension
22h 57m 19s
True Declination
27° 03' 38"
Sunlit
Object was in daylight at epoch
Visualization orbit readout
Latitude
Unknown
Longitude
Unknown
Altitude
Unknown
Speed
Unknown
Apparent Right ascension
Unknown
Apparent Declination
Unknown
Sunlit
N/A
Visualization observer readout
Local Sidereal Time
10:25:40
Azimuth
Unknown
Elevation
Unknown
Doppler factor
Unknown
Orbital elements
Apogee altitude
1,472.335 km
Perigee altitude
991.776 km
Semi-major axis
7,610.192 km
Eccentricity
0.03157
Inclination
101.8177°
RAAN
158.1905°
Arg. of periapsis
322.5348°
True anomaly
189.67675°
Mean anomaly
190.2994°
Eccentric anomaly
189.98571°
Mean motion
3.26926 °/min
Orbital period
110.12 mins
BSTAR
0.00061388
Loading maneuver chart data...
Computing Atmospheric mass density...
Loading historical data...
Loading historical data...
Loading historical data...
Loading historical data...
Loading historical data...
Loading historical data...
Loading historical data...

Documentation

Showing up to 5 results
|